metlocid,date_time,avg_wspd,stddev_wspd,min_wspd,max_wspd,n_wspd,n_comments
FLMM,1/1/11,6.603318587,3.785181444,0.2,15.4,2260,0
FLMM,2/1/11,5.378199407,4.180737299,0,16.4,2688,4
FLMM,3/1/11,7.33709677,6.034029114,0,28.7,2976,1
FLMM,4/1/11,11.13621529,7.143453255,0,25.9,2880,3
FLMM,5/1/11,8.213172047,5.925341783,0,25.1,2976,3
FLMM,6/1/11,9.316493046,5.751067566,0,20.6,2880,3
FLMM,7/1/11,10.56011425,6.101778649,0.1,25.1,2976,0
FLMM,8/1/11,11.74358198,7.151630179,0,31.4,2976,8
FLMM,9/1/11,12.56472222,6.622226613,0.1,27.7,2880,0
FLMM,10/1/11,11.96512097,7.425064514,0,30.8,2976,6
FLMM,11/1/11,9.134444446,4.165122684,0.2,20.3,2880,0
FLMM,12/1/11,8.740087367,5.68012451,0.2,27.3,2976,0
FLMM,1/1/12,8.542775541,4.412996267,0,23.9,2976,3
FLMM,2/1/12,9.151077592,6.03929214,0,27.5,2784,7
FLMM,3/1/12,8.616028232,4.826781224,0.1,28.8,2976,0
FLMM,4/1/12,9.047256943,5.599839303,0,24.2,2880,9
FLMM,5/1/12,12.19969758,7.075814878,0,30,2976,19
FLMM,6/1/12,11.55663195,8.286520178,0,32.3,2880,7
FLMM,7/1/12,9.028259418,6.832223547,0,26.2,2976,13
FLMM,8/1/12,14.60480511,8.052047521,0,32.8,2976,2
FLMM,9/1/12,7.965034721,5.635238366,0,21.6,2880,5
FLMM,10/1/12,8.428595432,5.435939432,0,23.4,2976,3
FLMM,11/1/12,7.992638889,4.479636446,0,19.1,2880,5
FLMM,12/1/12,4.996874999,3.71176014,0,15.9,2976,2
FLMM,1/1/13,7.382291674,4.389665362,0,20.4,2976,4
FLMM,2/1/13,6.166555062,3.840336101,0,16.6,2688,7
FLMM,3/1/13,7.833064521,5.020034706,0,22.9,2976,1
FLMM,4/1/13,7.200763886,6.925969334,0,28.1,2880,15
FLMM,5/1/13,8.945833337,7.071188752,0,27.8,2976,11
FLMM,6/1/13,8.438715284,5.970007051,0,26.3,2880,1
FLMM,7/1/13,7.931283607,5.730777225,0,26.4,2976,14
FLMM,8/1/13,11.32295028,7.794809363,0,33.6,2976,4
FLMM,9/1/13,12.15947917,7.376333958,0.1,31.6,2880,0
FLMM,10/1/13,7.694422042,5.285928282,0.1,23.7,2976,0
FLMM,11/1/13,8.116423614,4.722834544,0,20.3,2880,1
FLMM,12/1/13,9.162836977,5.73375332,0.15,22.83,2975,2625
FLMM,1/1/14,8.854170029,6.258472007,0.07,28.66,2976,2976
FLMM,2/1/14,9.54773809,6.18097143,0.21,27.22,2688,2688
FLMM,3/1/14,6.938138276,5.752953201,0.05,23.81,2965,2965
FLMM,4/1/14,13.2696273,7.540796165,0.06,30.81,2871,2871
FLMM,5/1/14,11.24265299,6.245770837,0.06,30.11,2974,2974
FLMM,6/1/14,10.18077565,6.154760747,0.09,28.27,2875,2875
FLMM,7/1/14,7.063412559,6.3358226,0.06,23.04,1178,1178
FLMM,11/1/14,6.525093772,3.514359401,0.38,14.44,1013,1013
FLMM,12/1/14,7.971627441,3.668291825,0.33,19.18,2974,2974
FLMM,1/1/15,6.152510073,4.294001359,0,20.75,2976,2976
FLMM,2/1/15,7.945974701,4.534639743,0.2,19.76,2688,2688
FLMM,3/1/15,8.38004705,5.887095329,0,24.56,2976,2976
FLMM,4/1/15,9.263874993,6.357797876,0,26.43,2880,2880
FLMM,5/1/15,8.738198926,7.13200483,0,31.02,2976,2976
FLMM,6/1/15,8.954503471,8.46023247,0,38.01,2880,2880
FLMM,7/1/15,10.51411291,7.266222139,0,33.68,2976,2976
FLMM,8/1/15,11.28684476,7.387450692,0,37.84,2976,2976
FLMM,9/1/15,12.52372224,6.59692321,0.13,34.49,2880,2880
FLMM,10/1/15,10.03209677,6.364542641,0,26.94,2976,2976
FLMM,11/1/15,8.721499996,4.545693614,0.05,22.09,2880,2880
FLMM,12/1/15,8.390203313,6.048400807,0.21,24.74,2902,82
FLMM,1/1/16,8.258313174,4.299705646,0.11,23.29,2976,0
FLMM,2/1/16,7.418132183,5.725127981,0,22.45,2784,0
FLMM,3/1/16,6.556058467,5.457505978,0.01,25.21,2976,0
FLMM,4/1/16,5.649951393,4.817586638,0,19.62,2880,0
FLMM,5/1/16,11.45595093,9.275356897,0,35.55,2976,0
FLMM,6/1/16,8.455489576,6.523119733,0,27.65,2880,0
FLMM,7/1/16,9.866740591,7.176090288,0,31.49,2976,0
FLMM,8/1/16,9.280561158,8.646813603,0,34.55,2976,0
FLMM,9/1/16,10.50612847,6.384845138,0,26.9,2880,0
FLMM,10/1/16,8.402009411,5.62428983,0,23.59,2976,0
FLMM,11/1/16,11.5642882,6.208453813,0.39,28.3,2880,0
FLMM,12/1/16,7.820386564,4.698586179,0.14,26.52,2975,0
FLMM,1/1/17,8.412331986,4.458103085,0.5,21.98,2976,0
FLMM,2/1/17,11.45270461,5.685155836,0.56,27.21,2688,0
FLMM,3/1/17,6.174069227,4.948714355,0,20.69,2976,0
FLMM,4/1/17,7.341000002,5.142317557,0,29.13,2880,0
FLMM,5/1/17,10.9515457,7.483131353,0,35.68,2976,0
FLMM,6/1/17,9.902104162,6.248340122,0.02,28.26,2880,0
FLMM,7/1/17,10.18279234,7.182434126,0,33.75,2976,0
FLMM,8/1/17,9.899445557,7.805265312,0,35.1,2976,0
FLMM,9/1/17,10.34699999,7.926115951,0,31.42,2880,0
FLMM,10/1/17,12.51519154,5.573864856,0.03,24.31,2976,0
FLMM,11/1/17,9.185283086,5.968035049,0.16,26.2,2879,0
FLMM,12/1/17,7.435551078,4.727117832,0.13,21.83,2976,0
FLMM,1/1/18,7.047651208,4.319558927,0.27,20.38,2976,0
FLMM,2/1/18,7.030360859,5.314023843,0,26.53,2688,0
FLMM,3/1/18,9.32953293,6.454627963,0,28.83,2976,0
FLMM,4/1/18,13.9066021,10.07458084,0,46.77,1342,0
FLMM,5/1/18,,,,,0,0
FLMM,6/1/18,,,,,0,0
FLMM,7/1/18,,,,,0,0
FLMM,8/1/18,,,,,0,0
FLMM,9/1/18,,,,,0,0
FLMM,10/1/18,,,,,0,0
FLMM,11/1/18,,,,,0,0
FLMM,12/1/18,9.302048465,3.147571738,0.71,17.83,1279,0
FLMM,1/1/19,7.135981183,4.831835732,0.23,24,2976,0
FLMM,2/1/19,7.507139142,4.985554398,0,22.44,2688,0
FLMM,3/1/19,8.624858879,5.64070246,0.04,22.93,2976,0
FLMM,4/1/19,8.859260413,5.554496452,0.01,20.59,2880,0
FLMM,5/1/19,9.441562495,6.662419205,0,25.37,2976,0
FLMM,6/1/19,12.30477431,6.802422436,0.01,27.87,2880,0
FLMM,7/1/19,13.00924059,7.873696938,0,33.89,2976,0
FLMM,8/1/19,11.34938844,6.354270621,0,27.64,2976,0
FLMM,9/1/19,10.5841493,6.597544129,0,27.17,2880,0
FLMM,10/1/19,7.198565188,5.570546323,0,23.67,2976,0
FLMM,11/1/19,9.743916666,4.501747315,0.32,21.74,2880,0
FLMM,12/1/19,7.94534992,5.436156784,0.02,25.28,2975,0
FLMM,1/1/20,7.141757727,3.793256193,0.096,18.34,2976,0
FLMM,2/1/20,8.07773815,5.302692039,0.019,24.83,2784,0
FLMM,3/1/20,7.524545023,6.430610369,0,27.16,2976,0
FLMM,4/1/20,12.58907186,7.902397531,0,34.71,2880,0
FLMM,5/1/20,8.760297384,5.353319228,0,24.19,2976,0
FLMM,6/1/20,12.25763437,6.181743307,0,27.39,2880,0
FLMM,7/1/20,11.85728024,7.677444206,0,28.66,2976,0
FLMM,8/1/20,12.28417573,6.53601866,0,25.36,2976,0
FLMM,9/1/20,10.72778887,6.855987241,0,26.54,2880,0
FLMM,10/1/20,10.21821942,5.495997808,0.113,32.73,2976,0
FLMM,11/1/20,7.573255557,4.02100675,0.109,16.75,2880,0
FLMM,12/1/20,8.499220769,4.287662499,0,19.39,2976,0
FLMM,1/1/21,9.400924726,5.670823843,0.397,28.94,2976,0
FLMM,2/1/21,7.764861238,5.817117945,0.029,25.86,2688,0
FLMM,3/1/21,7.938810488,6.025004111,0,24.2,2976,0
FLMM,4/1/21,7.403594097,6.416116025,0,24.63,2880,0
FLMM,5/1/21,8.291487901,5.968435079,0,25.95,2976,0
FLMM,6/1/21,13.4762434,5.697204242,0.433,33.83,2880,0
FLMM,7/1/21,9.414672044,6.58643381,0,28.72,2976,0
FLMM,8/1/21,12.71525034,9.533685024,0.005,38.51,2976,0
FLMM,9/1/21,9.594581947,7.381406566,0,30.94,2880,0
FLMM,10/1/21,12.58051109,7.80021153,0.053,39.3,2976,0
FLMM,11/1/21,7.405522918,4.860069336,0,21.48,2880,0
FLMM,12/1/21,8.387155629,4.294543767,0,22.61,2975,0
FLMM,1/1/22,7.300083337,3.846145102,0.292,16.74,2976,0
FLMM,2/1/22,7.797128721,5.22023951,0,23.77,2688,0
FLMM,3/1/22,11.05590423,8.369830409,0,33.85,2976,0
FLMM,4/1/22,7.445123268,5.846273315,0,28.33,2880,0
FLMM,5/1/22,13.20861928,6.200674889,0.403,30.33,2976,0
FLMM,6/1/22,9.534503128,7.093012596,0,29.76,2880,0
FLMM,7/1/22,13.50373891,7.474036382,0,31.7,2976,0
FLMM,8/1/22,11.95542911,6.353516405,0.103,27.09,2976,0
FLMM,9/1/22,11.43366251,6.146459327,0.182,28.54,2880,0
FLMM,10/1/22,9.565319556,7.859354129,0,37.46,2976,0
FLMM,11/1/22,7.526430209,4.676898181,0.175,21.16,2880,0
FLMM,12/1/22,9.279464805,3.808760446,0.906,21.39,1762,0